Time,TemperatureF,DewpointF,PressureIn,WindDirection,WindDirectionDegrees,WindSpeedMPH,WindSpeedGustMPH,Humidity,HourlyPrecipIn,Conditions,Clouds,dailyrainin,SolarRadiationWatts/m^2,SoftwareType,DateUTC
2013-04-25 00:00:00,71.7,22.5,29.83,East,83,4.2,22.4,16,0.00,,,0.00,0.0,WUHU216CR1000,2013-04-25 07:00:00,
2013-04-25 00:05:00,71.5,22.2,29.83,ESE,102,2.9,22.4,16,0.00,,,0.00,0.0,WUHU216CR1000,2013-04-25 07:05:00,
2013-04-25 00:10:00,71.3,22.2,29.83,ENE,66,0.9,9.0,16,0.00,,,0.00,0.0,WUHU216CR1000,2013-04-25 07:10:00,
2013-04-25 00:15:00,71.2,22.2,29.83,NNE,23,0.9,9.0,16,0.00,,,0.00,0.0,WUHU216CR1000,2013-04-25 07:15:00,
2013-04-25 00:20:00,70.9,22.0,29.83,ENE,75,5.5,9.0,16,0.00,,,0.00,0.0,WUHU216CR1000,2013-04-25 07:20:00,
2013-04-25 00:25:00,70.9,22.3,29.83,ENE,59,3.7,9.0,16,0.00,,,0.00,0.0,WUHU216CR1000,2013-04-25 07:25:00,
2013-04-25 00:31:00,70.4,22.6,29.83,SSW,200,5.0,9.0,16,0.00,,,0.00,0.0,WUHU216CR1000,2013-04-25 07:31:00,
2013-04-25 00:36:00,70.0,21.9,29.85,SW,224,1.3,10.7,16,0.00,,,0.00,0.0,WUHU216CR1000,2013-04-25 07:36:00,
2013-04-25 00:41:00,69.9,21.9,29.85,SW,221,7.0,11.0,16,0.00,,,0.00,0.0,WUHU216CR1000,2013-04-25 07:41:00,
2013-04-25 00:46:00,68.9,35.4,29.85,SSW,192,4.2,12.9,29,0.00,,,0.00,0.0,WUHU216CR1000,2013-04-25 07:46:00,
2013-04-25 00:51:00,66.7,38.4,29.85,West,261,3.5,12.9,35,0.00,,,0.00,0.0,WUHU216CR1000,2013-04-25 07:51:00,
2013-04-25 00:56:00,65.1,40.3,29.85,SSW,209,5.0,12.9,40,0.00,,,0.00,0.0,WUHU216CR1000,2013-04-25 07:56:00,
2013-04-25 01:01:00,64.0,39.8,29.85,SW,228,5.3,12.9,41,0.00,,,0.00,0.0,WUHU216CR1000,2013-04-25 08:01:00,
2013-04-25 01:06:00,63.1,40.1,29.88,SSW,204,3.7,12.9,43,0.00,,,0.00,0.0,WUHU216CR1000,2013-04-25 08:06:00,
2013-04-25 01:11:00,62.5,41.4,29.88,SSW,210,1.3,12.9,46,0.00,,,0.00,0.0,WUHU216CR1000,2013-04-25 08:11:00,
2013-04-25 01:16:00,62.0,42.4,29.88,SW,223,6.1,12.9,48,0.00,,,0.00,0.0,WUHU216CR1000,2013-04-25 08:16:00,
2013-04-25 01:21:00,61.4,42.6,29.88,SW,224,7.7,12.9,50,0.00,,,0.00,0.0,WUHU216CR1000,2013-04-25 08:21:00,
2013-04-25 01:26:00,61.0,43.2,29.88,SSE,168,1.1,12.9,52,0.00,,,0.00,0.0,WUHU216CR1000,2013-04-25 08:26:00,
2013-04-25 01:31:00,60.6,43.8,29.88,SSE,157,1.5,12.9,54,0.00,,,0.00,0.0,WUHU216CR1000,2013-04-25 08:31:00,
2013-04-25 01:37:00,60.7,44.5,29.88,ESE,104,2.0,12.9,55,0.00,,,0.00,0.0,WUHU216CR1000,2013-04-25 08:37:00,
2013-04-25 01:42:00,60.0,44.3,29.88,East,79,0.0,12.9,56,0.00,,,0.00,0.0,WUHU216CR1000,2013-04-25 08:42:00,
2013-04-25 01:47:00,59.9,44.4,29.88,East,93,3.1,12.9,57,0.00,,,0.00,0.0,WUHU216CR1000,2013-04-25 08:47:00,
2013-04-25 01:52:00,59.4,44.5,29.88,ESE,119,3.7,12.9,58,0.00,,,0.00,0.0,WUHU216CR1000,2013-04-25 08:52:00,
2013-04-25 01:57:00,58.8,44.5,29.88,SE,141,2.0,12.9,59,0.00,,,0.00,0.0,WUHU216CR1000,2013-04-25 08:57:00,
2013-04-25 02:02:00,58.9,44.9,29.88,ENE,71,0.7,12.9,60,0.00,,,0.00,0.0,WUHU216CR1000,2013-04-25 09:02:00,
2013-04-25 02:07:00,58.4,44.5,29.88,SE,128,3.3,12.9,60,0.00,,,0.00,0.0,WUHU216CR1000,2013-04-25 09:07:00,
2013-04-25 02:12:00,58.4,44.8,29.88,East,101,1.5,12.9,60,0.00,,,0.00,0.0,WUHU216CR1000,2013-04-25 09:12:00,
2013-04-25 02:17:00,57.8,44.5,29.88,NE,56,0.0,12.9,61,0.00,,,0.00,0.0,WUHU216CR1000,2013-04-25 09:17:00,
2013-04-25 02:22:00,58.0,45.3,29.88,ESE,104,1.8,12.9,63,0.00,,,0.00,0.0,WUHU216CR1000,2013-04-25 09:22:00,
2013-04-25 02:27:00,57.7,45.6,29.88,ENE,74,3.1,12.9,64,0.00,,,0.00,0.0,WUHU216CR1000,2013-04-25 09:27:00,
2013-04-25 02:32:00,57.3,46.0,29.88,East,87,2.2,12.9,66,0.00,,,0.00,0.0,WUHU216CR1000,2013-04-25 09:32:00,
2013-04-25 02:37:00,57.3,46.8,29.88,ENE,68,3.9,12.9,68,0.00,,,0.00,0.0,WUHU216CR1000,2013-04-25 09:37:00,
2013-04-25 02:43:00,57.2,47.0,29.88,East,86,2.6,12.9,69,0.00,,,0.00,0.0,WUHU216CR1000,2013-04-25 09:43:00,
2013-04-25 02:48:00,57.4,47.2,29.88,SE,124,2.4,12.9,69,0.00,,,0.00,0.0,WUHU216CR1000,2013-04-25 09:48:00,
2013-04-25 02:53:00,57.3,47.0,29.88,ESE,121,3.7,12.9,69,0.00,,,0.00,0.0,WUHU216CR1000,2013-04-25 09:53:00,
2013-04-25 02:58:00,57.3,47.0,29.88,East,85,2.4,12.9,68,0.00,,,0.00,0.0,WUHU216CR1000,2013-04-25 09:58:00,
2013-04-25 03:03:00,57.2,46.8,29.88,East,88,3.3,12.9,68,0.00,,,0.00,0.0,WUHU216CR1000,2013-04-25 10:03:00,
2013-04-25 03:08:00,57.2,46.7,29.88,ENE,61,3.1,12.9,68,0.00,,,0.00,0.0,WUHU216CR1000,2013-04-25 10:08:00,
2013-04-25 03:13:00,57.1,46.7,29.88,ESE,114,1.8,12.9,68,0.00,,,0.00,0.0,WUHU216CR1000,2013-04-25 10:13:00,
2013-04-25 03:18:00,57.0,46.8,29.88,SSE,148,5.5,12.9,69,0.00,,,0.00,0.0,WUHU216CR1000,2013-04-25 10:18:00,
2013-04-25 03:23:00,56.8,46.9,29.88,SSE,147,4.2,12.9,69,0.00,,,0.00,0.0,WUHU216CR1000,2013-04-25 10:23:00,
2013-04-25 03:28:00,56.6,46.8,29.88,SE,137,3.1,12.9,70,0.00,,,0.00,0.0,WUHU216CR1000,2013-04-25 10:28:00,
2013-04-25 03:33:00,56.6,46.9,29.88,ESE,121,2.6,12.9,70,0.00,,,0.00,0.0,WUHU216CR1000,2013-04-25 10:33:00,
2013-04-25 03:38:00,56.5,46.9,29.88,SE,142,2.6,12.9,70,0.00,,,0.00,0.0,WUHU216CR1000,2013-04-25 10:38:00,
2013-04-25 03:43:00,56.3,46.7,29.88,ESE,122,2.0,12.9,70,0.00,,,0.00,0.0,WUHU216CR1000,2013-04-25 10:43:00,
2013-04-25 03:49:00,56.6,46.9,29.88,ESE,114,3.7,12.9,70,0.00,,,0.00,0.0,WUHU216CR1000,2013-04-25 10:49:00,
2013-04-25 03:54:00,56.3,46.8,29.88,ESE,120,2.0,12.9,70,0.00,,,0.00,0.0,WUHU216CR1000,2013-04-25 10:54:00,
2013-04-25 03:59:00,56.6,47.0,29.88,South,183,8.3,12.9,70,0.00,,,0.00,0.0,WUHU216CR1000,2013-04-25 10:59:00,
2013-04-25 04:04:00,56.5,46.8,29.88,South,183,4.4,12.9,70,0.00,,,0.00,0.0,WUHU216CR1000,2013-04-25 11:04:00,
2013-04-25 04:09:00,56.5,46.9,29.91,East,92,1.1,12.9,70,0.00,,,0.00,0.0,WUHU216CR1000,2013-04-25 11:09:00,
2013-04-25 04:14:00,56.1,46.6,29.91,South,184,0.0,12.9,70,0.00,,,0.00,0.0,WUHU216CR1000,2013-04-25 11:14:00,
2013-04-25 04:19:00,56.0,46.6,29.91,South,188,3.7,12.9,71,0.00,,,0.00,0.0,WUHU216CR1000,2013-04-25 11:19:00,
2013-04-25 04:24:00,56.0,46.7,29.91,SSE,148,2.6,12.9,71,0.00,,,0.00,0.0,WUHU216CR1000,2013-04-25 11:24:00,
2013-04-25 04:29:00,55.9,46.8,29.91,SSE,156,1.1,12.9,71,0.00,,,0.00,0.0,WUHU216CR1000,2013-04-25 11:29:00,
2013-04-25 04:34:00,55.5,46.5,29.91,SW,222,4.2,12.9,72,0.00,,,0.00,0.0,WUHU216CR1000,2013-04-25 11:34:00,
2013-04-25 04:39:00,55.6,46.8,29.91,SSW,208,3.3,12.9,72,0.00,,,0.00,0.0,WUHU216CR1000,2013-04-25 11:39:00,
2013-04-25 04:44:00,55.3,46.7,29.91,SSW,206,2.4,12.9,73,0.00,,,0.00,0.0,WUHU216CR1000,2013-04-25 11:44:00,
2013-04-25 04:49:00,54.8,46.4,29.91,SSW,201,2.0,12.9,73,0.00,,,0.00,0.0,WUHU216CR1000,2013-04-25 11:49:00,
2013-04-25 04:55:00,54.6,46.5,29.91,South,182,2.9,12.9,74,0.00,,,0.00,0.0,WUHU216CR1000,2013-04-25 11:55:00,
2013-04-25 05:00:00,54.2,46.2,29.91,SW,216,2.6,12.9,74,0.00,,,0.00,0.0,WUHU216CR1000,2013-04-25 12:00:00,
2013-04-25 05:05:00,54.2,46.3,29.91,SW,233,1.5,12.9,75,0.00,,,0.00,0.0,WUHU216CR1000,2013-04-25 12:05:00,
2013-04-25 05:10:00,53.8,46.0,29.91,WNW,292,1.1,12.9,75,0.00,,,0.00,0.0,WUHU216CR1000,2013-04-25 12:10:00,
2013-04-25 05:15:00,53.5,45.8,29.91,West,263,0.0,12.9,75,0.00,,,0.00,0.0,WUHU216CR1000,2013-04-25 12:15:00,
2013-04-25 05:20:00,53.7,45.8,29.91,ENE,69,0.0,12.9,75,0.00,,,0.00,0.0,WUHU216CR1000,2013-04-25 12:20:00,
2013-04-25 05:25:00,53.4,45.8,29.94,NW,324,0.0,12.9,75,0.00,,,0.00,0.0,WUHU216CR1000,2013-04-25 12:25:00,
2013-04-25 05:30:00,53.1,45.8,29.94,NW,321,0.0,12.9,76,0.00,,,0.00,0.0,WUHU216CR1000,2013-04-25 12:30:00,
2013-04-25 05:35:00,52.7,45.4,29.94,WNW,286,0.0,12.9,76,0.00,,,0.00,0.0,WUHU216CR1000,2013-04-25 12:35:00,
2013-04-25 05:40:00,52.7,45.7,29.94,NNW,331,0.0,12.9,77,0.00,,,0.00,0.0,WUHU216CR1000,2013-04-25 12:40:00,
2013-04-25 05:45:00,52.2,45.5,29.94,ENE,75,0.0,12.9,78,0.00,,,0.00,0.0,WUHU216CR1000,2013-04-25 12:45:00,
2013-04-25 05:51:00,51.8,45.4,29.94,ENE,72,2.2,12.9,79,0.00,,,0.00,0.0,WUHU216CR1000,2013-04-25 12:51:00,
2013-04-25 05:56:00,51.6,45.2,29.94,East,87,0.0,12.9,79,0.00,,,0.00,0.0,WUHU216CR1000,2013-04-25 12:56:00,
2013-04-25 06:01:00,51.5,45.1,29.94,NE,38,0.0,12.9,79,0.00,,,0.00,0.0,WUHU216CR1000,2013-04-25 13:01:00,
2013-04-25 06:06:00,51.5,45.4,29.94,ESE,117,1.8,12.9,80,0.00,,,0.00,0.0,WUHU216CR1000,2013-04-25 13:06:00,
2013-04-25 06:11:00,51.2,45.1,29.94,NNW,331,0.0,12.9,80,0.00,,,0.00,0.0,WUHU216CR1000,2013-04-25 13:11:00,
2013-04-25 06:16:00,51.2,45.3,29.94,NW,307,0.0,12.9,80,0.00,,,0.00,0.0,WUHU216CR1000,2013-04-25 13:16:00,
2013-04-25 06:21:00,51.2,45.3,29.94,NW,313,0.4,12.9,80,0.00,,,0.00,0.0,WUHU216CR1000,2013-04-25 13:21:00,
2013-04-25 06:26:00,50.7,44.9,29.94,South,179,0.0,12.9,80,0.00,,,0.00,0.0,WUHU216CR1000,2013-04-25 13:26:00,
2013-04-25 06:31:00,50.7,45.0,29.94,WNW,291,0.0,12.9,81,0.00,,,0.00,0.0,WUHU216CR1000,2013-04-25 13:31:00,
2013-04-25 06:36:00,50.4,45.0,29.97,North,353,0.0,12.9,82,0.00,,,0.00,0.0,WUHU216CR1000,2013-04-25 13:36:00,
2013-04-25 06:41:00,50.4,45.0,29.97,North,2,0.0,12.9,82,0.00,,,0.00,0.0,WUHU216CR1000,2013-04-25 13:41:00,
2013-04-25 06:47:00,50.4,44.7,29.97,SE,130,0.0,12.9,81,0.00,,,0.00,0.0,WUHU216CR1000,2013-04-25 13:47:00,
2013-04-25 06:52:00,50.8,44.3,29.97,East,93,0.0,12.9,78,0.00,,,0.00,0.0,WUHU216CR1000,2013-04-25 13:52:00,
2013-04-25 06:57:00,50.8,44.0,29.97,SE,138,0.0,12.9,78,0.00,,,0.00,0.0,WUHU216CR1000,2013-04-25 13:57:00,
2013-04-25 07:02:00,51.1,44.2,29.97,ENE,61,0.0,12.9,77,0.00,,,0.00,0.0,WUHU216CR1000,2013-04-25 14:02:00,
2013-04-25 07:07:00,51.9,44.9,29.97,ESE,113,1.3,12.9,77,0.00,,,0.00,0.0,WUHU216CR1000,2013-04-25 14:07:00,
2013-04-25 07:12:00,52.5,45.1,29.97,East,96,2.0,12.9,76,0.00,,,0.00,0.0,WUHU216CR1000,2013-04-25 14:12:00,
2013-04-25 07:17:00,52.7,45.3,29.97,ENE,75,0.0,12.9,76,0.00,,,0.00,0.0,WUHU216CR1000,2013-04-25 14:17:00,
2013-04-25 07:22:00,53.2,45.5,29.97,ESE,113,2.9,12.9,75,0.00,,,0.00,0.0,WUHU216CR1000,2013-04-25 14:22:00,
2013-04-25 07:27:00,53.6,45.6,29.97,ESE,105,2.0,12.9,74,0.00,,,0.00,0.0,WUHU216CR1000,2013-04-25 14:27:00,
2013-04-25 07:32:00,53.9,45.5,29.97,SE,125,2.9,12.9,73,0.00,,,0.00,0.0,WUHU216CR1000,2013-04-25 14:32:00,
2013-04-25 07:37:00,54.3,45.7,29.97,East,83,2.4,12.9,73,0.00,,,0.00,0.0,WUHU216CR1000,2013-04-25 14:37:00,
2013-04-25 07:42:00,54.5,45.7,29.97,ESE,110,2.4,12.9,72,0.00,,,0.00,0.0,WUHU216CR1000,2013-04-25 14:42:00,
2013-04-25 07:48:00,55.1,45.8,29.97,SSE,154,3.9,12.9,71,0.00,,,0.00,0.0,WUHU216CR1000,2013-04-25 14:48:00,
2013-04-25 07:53:00,55.1,45.6,30.00,East,99,1.3,12.9,70,0.00,,,0.00,0.0,WUHU216CR1000,2013-04-25 14:53:00,
2013-04-25 07:58:00,55.4,45.9,30.00,ENE,71,2.2,12.9,70,0.00,,,0.00,0.0,WUHU216CR1000,2013-04-25 14:58:00,
2013-04-25 08:03:00,55.6,45.8,30.00,SW,214,2.2,12.9,69,0.00,,,0.00,0.0,WUHU216CR1000,2013-04-25 15:03:00,
2013-04-25 08:08:00,55.5,45.8,30.00,SSW,210,3.9,12.9,70,0.00,,,0.00,0.0,WUHU216CR1000,2013-04-25 15:08:00,
2013-04-25 08:13:00,56.4,46.3,30.00,SSE,148,1.5,12.9,69,0.00,,,0.00,0.0,WUHU216CR1000,2013-04-25 15:13:00,
2013-04-25 08:18:00,56.5,46.3,30.00,East,89,2.2,12.9,69,0.00,,,0.00,0.0,WUHU216CR1000,2013-04-25 15:18:00,
2013-04-25 08:23:00,56.4,46.0,30.00,SSE,148,4.4,12.9,68,0.00,,,0.00,0.0,WUHU216CR1000,2013-04-25 15:23:00,
2013-04-25 08:28:00,56.4,46.1,30.00,SSW,207,2.4,12.9,68,0.00,,,0.00,0.0,WUHU216CR1000,2013-04-25 15:28:00,
2013-04-25 08:33:00,56.6,46.4,30.00,WSW,251,2.2,12.9,69,0.00,,,0.00,0.0,WUHU216CR1000,2013-04-25 15:33:00,
2013-04-25 08:39:00,56.8,46.5,30.00,SE,137,2.6,12.9,68,0.00,,,0.00,0.0,WUHU216CR1000,2013-04-25 15:39:00,
2013-04-25 08:44:00,57.2,46.9,30.00,SE,125,4.4,12.9,69,0.00,,,0.00,0.0,WUHU216CR1000,2013-04-25 15:44:00,
2013-04-25 08:49:00,57.3,46.7,30.00,SW,217,2.6,12.9,68,0.00,,,0.00,0.0,WUHU216CR1000,2013-04-25 15:49:00,
2013-04-25 08:54:00,57.5,46.7,30.00,South,175,1.8,12.9,67,0.00,,,0.00,0.0,WUHU216CR1000,2013-04-25 15:54:00,
2013-04-25 08:59:00,57.9,47.0,30.00,ENE,66,2.4,12.9,67,0.00,,,0.00,0.0,WUHU216CR1000,2013-04-25 15:59:00,
2013-04-25 09:04:00,58.0,46.9,30.00,East,91,4.6,12.9,66,0.00,,,0.00,0.0,WUHU216CR1000,2013-04-25 16:04:00,
2013-04-25 09:09:00,57.7,46.5,30.00,SSE,154,3.3,12.9,66,0.00,,,0.00,0.0,WUHU216CR1000,2013-04-25 16:09:00,
2013-04-25 09:14:00,57.8,46.5,30.00,SW,215,1.1,12.9,66,0.00,,,0.00,0.0,WUHU216CR1000,2013-04-25 16:14:00,
2013-04-25 09:19:00,58.3,47.0,30.00,SSW,208,3.9,12.9,66,0.00,,,0.00,0.0,WUHU216CR1000,2013-04-25 16:19:00,
2013-04-25 09:24:00,58.8,47.5,30.00,SE,138,5.9,12.9,66,0.00,,,0.00,0.0,WUHU216CR1000,2013-04-25 16:24:00,
2013-04-25 09:29:00,59.1,47.0,30.00,SE,131,3.7,12.9,64,0.00,,,0.00,0.0,WUHU216CR1000,2013-04-25 16:29:00,
2013-04-25 09:34:00,59.1,47.3,30.00,SE,140,2.6,12.9,65,0.00,,,0.00,0.0,WUHU216CR1000,2013-04-25 16:34:00,
2013-04-25 09:39:00,60.1,47.8,30.00,SSE,162,3.9,12.9,64,0.00,,,0.00,0.0,WUHU216CR1000,2013-04-25 16:39:00,
2013-04-25 09:44:00,61.1,47.5,30.00,SW,215,0.9,12.9,61,0.00,,,0.00,0.0,WUHU216CR1000,2013-04-25 16:44:00,
2013-04-25 09:50:00,61.0,47.3,30.00,SW,216,6.6,12.9,61,0.00,,,0.00,0.0,WUHU216CR1000,2013-04-25 16:50:00,
2013-04-25 09:55:00,61.0,47.5,30.00,SSE,152,0.7,12.9,61,0.00,,,0.00,0.0,WUHU216CR1000,2013-04-25 16:55:00,
2013-04-25 10:00:00,61.6,47.8,30.00,South,174,3.1,12.9,61,0.00,,,0.00,0.0,WUHU216CR1000,2013-04-25 17:00:00,
2013-04-25 10:05:00,62.4,48.0,30.00,SW,227,0.0,12.9,59,0.00,,,0.00,0.0,WUHU216CR1000,2013-04-25 17:05:00,
2013-04-25 10:10:00,63.1,47.8,30.00,SSW,203,8.1,12.9,57,0.00,,,0.00,0.0,WUHU216CR1000,2013-04-25 17:10:00,
2013-04-25 10:15:00,62.9,47.4,30.00,SSW,207,7.0,12.9,57,0.00,,,0.00,0.0,WUHU216CR1000,2013-04-25 17:15:00,
2013-04-25 10:20:00,62.4,47.5,30.00,South,174,4.4,12.9,58,0.00,,,0.00,0.0,WUHU216CR1000,2013-04-25 17:20:00,
2013-04-25 10:25:00,62.5,47.5,30.00,West,262,1.8,12.9,58,0.00,,,0.00,0.0,WUHU216CR1000,2013-04-25 17:25:00,
2013-04-25 10:30:00,63.4,48.1,30.00,SW,214,4.8,12.9,57,0.00,,,0.00,0.0,WUHU216CR1000,2013-04-25 17:30:00,
2013-04-25 10:35:00,63.3,48.1,30.03,SW,232,3.1,12.9,58,0.00,,,0.00,0.0,WUHU216CR1000,2013-04-25 17:35:00,
2013-04-25 10:41:00,63.9,48.1,30.00,WSW,253,1.5,12.9,57,0.00,,,0.00,0.0,WUHU216CR1000,2013-04-25 17:41:00,
2013-04-25 10:46:00,64.3,48.0,30.00,SSW,196,1.1,12.9,55,0.00,,,0.00,0.0,WUHU216CR1000,2013-04-25 17:46:00,
2013-04-25 10:51:00,65.1,48.1,30.03,ESE,121,0.7,12.9,54,0.00,,,0.00,0.0,WUHU216CR1000,2013-04-25 17:51:00,
2013-04-25 10:56:00,65.0,47.9,30.03,SW,236,3.1,12.9,54,0.00,,,0.00,0.0,WUHU216CR1000,2013-04-25 17:56:00,
2013-04-25 11:01:00,65.4,47.8,30.03,SSE,156,5.5,12.9,53,0.00,,,0.00,0.0,WUHU216CR1000,2013-04-25 18:01:00,
2013-04-25 11:06:00,65.8,47.8,30.03,West,261,4.6,12.9,52,0.00,,,0.00,0.0,WUHU216CR1000,2013-04-25 18:06:00,
2013-04-25 11:11:00,66.4,48.1,30.03,WSW,242,0.2,12.9,52,0.00,,,0.00,0.0,WUHU216CR1000,2013-04-25 18:11:00,
2013-04-25 11:16:00,66.4,48.2,30.00,SW,218,4.6,12.9,52,0.00,,,0.00,0.0,WUHU216CR1000,2013-04-25 18:16:00,
2013-04-25 11:21:00,67.0,48.8,30.00,West,269,4.6,12.9,52,0.00,,,0.00,0.0,WUHU216CR1000,2013-04-25 18:21:00,
2013-04-25 11:26:00,67.4,48.4,30.00,WNW,298,0.2,12.9,51,0.00,,,0.00,0.0,WUHU216CR1000,2013-04-25 18:26:00,
2013-04-25 11:31:00,67.6,47.5,30.00,East,94,3.3,12.9,48,0.00,,,0.00,0.0,WUHU216CR1000,2013-04-25 18:31:00,
2013-04-25 11:36:00,67.0,47.6,30.00,ENE,67,4.4,12.9,50,0.00,,,0.00,0.0,WUHU216CR1000,2013-04-25 18:36:00,
2013-04-25 11:41:00,66.4,48.5,30.00,NW,319,1.3,12.9,52,0.00,,,0.00,0.0,WUHU216CR1000,2013-04-25 18:41:00,
2013-04-25 11:47:00,67.6,48.4,30.00,SE,134,3.7,12.9,50,0.00,,,0.00,0.0,WUHU216CR1000,2013-04-25 18:47:00,
2013-04-25 11:52:00,67.4,48.2,30.00,East,94,2.4,12.9,50,0.00,,,0.00,0.0,WUHU216CR1000,2013-04-25 18:52:00,
2013-04-25 11:57:00,67.9,48.6,30.00,ENE,59,1.1,12.9,50,0.00,,,0.00,0.0,WUHU216CR1000,2013-04-25 18:57:00,
2013-04-25 12:02:00,68.4,49.4,30.00,SSW,200,4.4,12.9,51,0.00,,,0.00,0.0,WUHU216CR1000,2013-04-25 19:02:00,
2013-04-25 12:07:00,69.3,49.0,30.00,SSW,205,6.4,12.9,48,0.00,,,0.00,0.0,WUHU216CR1000,2013-04-25 19:07:00,
2013-04-25 12:12:00,69.1,49.2,30.00,East,93,0.9,12.9,49,0.00,,,0.00,0.0,WUHU216CR1000,2013-04-25 19:12:00,
2013-04-25 12:17:00,69.6,49.4,30.00,SSW,197,2.0,12.9,49,0.00,,,0.00,0.0,WUHU216CR1000,2013-04-25 19:17:00,
2013-04-25 12:22:00,70.8,48.5,30.00,SSE,159,6.1,12.9,45,0.00,,,0.00,0.0,WUHU216CR1000,2013-04-25 19:22:00,
2013-04-25 12:27:00,70.7,48.8,30.00,SSW,193,5.3,12.9,46,0.00,,,0.00,0.0,WUHU216CR1000,2013-04-25 19:27:00,
2013-04-25 12:32:00,71.5,49.5,30.00,WSW,250,3.5,12.9,46,0.00,,,0.00,0.0,WUHU216CR1000,2013-04-25 19:32:00,
2013-04-25 12:37:00,70.8,49.2,30.00,SE,142,6.1,12.9,46,0.00,,,0.00,0.0,WUHU216CR1000,2013-04-25 19:37:00,
2013-04-25 12:42:00,71.2,48.9,30.00,East,88,2.4,12.9,45,0.00,,,0.00,0.0,WUHU216CR1000,2013-04-25 19:42:00,
2013-04-25 12:48:00,71.9,48.7,30.00,ESE,108,4.2,12.9,44,0.00,,,0.00,0.0,WUHU216CR1000,2013-04-25 19:48:00,
2013-04-25 12:53:00,71.9,48.7,30.00,South,182,5.5,12.9,44,0.00,,,0.00,0.0,WUHU216CR1000,2013-04-25 19:53:00,
2013-04-25 12:58:00,72.4,49.7,30.00,WSW,251,3.9,12.9,45,0.00,,,0.00,0.0,WUHU216CR1000,2013-04-25 19:58:00,
2013-04-25 13:03:00,72.8,47.9,30.00,SSW,194,6.1,12.9,41,0.00,,,0.00,0.0,WUHU216CR1000,2013-04-25 20:03:00,
2013-04-25 13:08:00,73.5,48.9,30.00,NW,317,0.0,12.9,42,0.00,,,0.00,0.0,WUHU216CR1000,2013-04-25 20:08:00,
2013-04-25 13:13:00,73.5,48.4,30.00,SSE,157,2.9,12.9,41,0.00,,,0.00,0.0,WUHU216CR1000,2013-04-25 20:13:00,
2013-04-25 13:18:00,73.0,47.3,30.00,SE,144,2.2,12.9,40,0.00,,,0.00,0.0,WUHU216CR1000,2013-04-25 20:18:00,
2013-04-25 13:23:00,73.4,46.8,30.00,South,175,6.6,12.9,39,0.00,,,0.00,0.0,WUHU216CR1000,2013-04-25 20:23:00,
2013-04-25 13:28:00,73.0,46.3,30.00,SSW,211,0.0,12.9,39,0.00,,,0.00,0.0,WUHU216CR1000,2013-04-25 20:28:00,
2013-04-25 13:33:00,73.4,48.0,30.00,SSW,200,3.7,12.9,41,0.00,,,0.00,0.0,WUHU216CR1000,2013-04-25 20:33:00,
2013-04-25 13:38:00,74.2,47.4,30.00,SSW,212,0.0,12.9,39,0.00,,,0.00,0.0,WUHU216CR1000,2013-04-25 20:38:00,
2013-04-25 13:44:00,74.9,47.3,30.00,SSE,149,1.1,12.9,38,0.00,,,0.00,0.0,WUHU216CR1000,2013-04-25 20:44:00,
2013-04-25 13:49:00,75.5,46.3,30.00,South,170,2.9,12.9,35,0.00,,,0.00,0.0,WUHU216CR1000,2013-04-25 20:49:00,
2013-04-25 13:54:00,75.3,46.8,30.00,WSW,239,0.4,12.9,36,0.00,,,0.00,0.0,WUHU216CR1000,2013-04-25 20:54:00,
2013-04-25 13:59:00,75.7,46.4,30.00,South,185,6.8,12.9,35,0.00,,,0.00,0.0,WUHU216CR1000,2013-04-25 20:59:00,
2013-04-25 14:04:00,75.9,45.4,30.00,SW,228,3.3,12.9,34,0.00,,,0.00,0.0,WUHU216CR1000,2013-04-25 21:04:00,
2013-04-25 14:09:00,76.8,47.6,30.00,WSW,253,3.7,12.9,36,0.00,,,0.00,0.0,WUHU216CR1000,2013-04-25 21:09:00,
2013-04-25 14:14:00,76.6,46.2,30.00,SSE,147,5.5,12.9,34,0.00,,,0.00,0.0,WUHU216CR1000,2013-04-25 21:14:00,
2013-04-25 14:19:00,76.4,46.7,30.00,SW,220,1.3,12.9,35,0.00,,,0.00,0.0,WUHU216CR1000,2013-04-25 21:19:00,
2013-04-25 14:24:00,77.3,46.4,30.00,South,174,4.4,12.9,34,0.00,,,0.00,0.0,WUHU216CR1000,2013-04-25 21:24:00,
2013-04-25 14:29:00,77.0,48.3,30.00,South,175,5.0,12.9,36,0.00,,,0.00,0.0,WUHU216CR1000,2013-04-25 21:29:00,
2013-04-25 14:34:00,76.9,48.3,30.00,ENE,72,4.4,12.9,37,0.00,,,0.00,0.0,WUHU216CR1000,2013-04-25 21:34:00,
2013-04-25 14:40:00,77.3,48.3,30.00,SSE,165,1.8,12.9,36,0.00,,,0.00,0.0,WUHU216CR1000,2013-04-25 21:40:00,
2013-04-25 14:45:00,77.4,48.2,29.97,North,354,0.0,12.9,36,0.00,,,0.00,0.0,WUHU216CR1000,2013-04-25 21:45:00,
2013-04-25 14:50:00,76.8,48.3,29.97,ENE,63,3.7,12.9,37,0.00,,,0.00,0.0,WUHU216CR1000,2013-04-25 21:50:00,
2013-04-25 14:55:00,76.6,48.5,29.97,South,172,3.1,12.9,37,0.00,,,0.00,0.0,WUHU216CR1000,2013-04-25 21:55:00,
2013-04-25 15:00:00,76.6,47.6,29.97,East,84,2.0,12.9,36,0.00,,,0.00,0.0,WUHU216CR1000,2013-04-25 22:00:00,
2013-04-25 15:05:00,76.5,47.2,29.97,North,353,0.0,12.9,35,0.00,,,0.00,0.0,WUHU216CR1000,2013-04-25 22:05:00,
2013-04-25 15:10:00,75.9,47.4,29.97,West,261,0.0,12.9,36,0.00,,,0.00,0.0,WUHU216CR1000,2013-04-25 22:10:00,
2013-04-25 15:15:00,76.8,46.2,29.97,SSW,212,1.8,12.9,34,0.00,,,0.00,0.0,WUHU216CR1000,2013-04-25 22:15:00,
2013-04-25 15:20:00,76.9,46.8,29.97,East,85,1.3,12.9,35,0.00,,,0.00,0.0,WUHU216CR1000,2013-04-25 22:20:00,
2013-04-25 15:25:00,77.1,47.1,29.97,SSE,148,2.4,12.9,35,0.00,,,0.00,0.0,WUHU216CR1000,2013-04-25 22:25:00,
2013-04-25 15:30:00,78.4,46.0,29.97,SSE,164,5.3,12.9,32,0.00,,,0.00,0.0,WUHU216CR1000,2013-04-25 22:30:00,
2013-04-25 15:35:00,78.8,46.4,29.97,South,181,6.8,12.9,32,0.00,,,0.00,0.0,WUHU216CR1000,2013-04-25 22:35:00,
2013-04-25 15:40:00,79.8,46.2,29.97,SW,223,5.7,12.9,31,0.00,,,0.00,0.0,WUHU216CR1000,2013-04-25 22:40:00,
2013-04-25 15:45:00,78.8,45.5,29.97,South,177,4.4,12.9,31,0.00,,,0.00,0.0,WUHU216CR1000,2013-04-25 22:45:00,
2013-04-25 15:50:00,78.7,46.2,29.97,SSW,194,3.7,12.9,32,0.00,,,0.00,0.0,WUHU216CR1000,2013-04-25 22:50:00,
2013-04-25 15:56:00,78.3,45.3,29.97,East,99,4.2,12.9,31,0.00,,,0.00,0.0,WUHU216CR1000,2013-04-25 22:56:00,
2013-04-25 16:01:00,78.5,45.0,29.97,West,276,0.9,12.9,31,0.00,,,0.00,0.0,WUHU216CR1000,2013-04-25 23:01:00,
2013-04-25 16:06:00,78.8,45.3,29.97,SW,218,7.9,12.9,31,0.00,,,0.00,0.0,WUHU216CR1000,2013-04-25 23:06:00,
2013-04-25 16:11:00,79.6,45.2,29.97,SSE,148,1.1,12.9,30,0.00,,,0.00,0.0,WUHU216CR1000,2013-04-25 23:11:00,
2013-04-25 16:16:00,79.7,45.3,29.97,ESE,111,3.9,12.9,30,0.00,,,0.00,0.0,WUHU216CR1000,2013-04-25 23:16:00,
2013-04-25 16:21:00,79.6,45.0,29.97,SW,215,1.5,12.9,29,0.00,,,0.00,0.0,WUHU216CR1000,2013-04-25 23:21:00,
2013-04-25 16:26:00,80.0,44.8,29.97,SSE,152,5.0,12.9,29,0.00,,,0.00,0.0,WUHU216CR1000,2013-04-25 23:26:00,
2013-04-25 16:31:00,80.2,43.6,29.97,SSE,167,3.3,12.9,27,0.00,,,0.00,0.0,WUHU216CR1000,2013-04-25 23:31:00,
2013-04-25 16:36:00,80.3,44.4,29.97,ENE,57,6.4,12.9,28,0.00,,,0.00,0.0,WUHU216CR1000,2013-04-25 23:36:00,
2013-04-25 16:41:00,79.2,44.5,29.97,East,94,4.2,12.9,29,0.00,,,0.00,0.0,WUHU216CR1000,2013-04-25 23:41:00,
2013-04-25 16:46:00,79.2,43.8,29.97,ESE,123,7.0,12.9,29,0.00,,,0.00,0.0,WUHU216CR1000,2013-04-25 23:46:00,
2013-04-25 16:52:00,78.7,42.4,29.97,NNE,30,0.7,12.9,28,0.00,,,0.00,0.0,WUHU216CR1000,2013-04-25 23:52:00,
2013-04-25 16:57:00,78.8,42.5,29.97,SE,129,3.9,12.9,28,0.00,,,0.00,0.0,WUHU216CR1000,2013-04-25 23:57:00,
2013-04-25 17:02:00,78.7,42.3,29.97,SSE,164,3.7,12.9,27,0.00,,,0.00,0.0,WUHU216CR1000,2013-04-26 00:02:00,
2013-04-25 17:07:00,79.1,43.2,29.97,South,169,11.0,12.9,28,0.00,,,0.00,0.0,WUHU216CR1000,2013-04-26 00:07:00,
2013-04-25 17:12:00,79.2,44.5,29.97,SSW,211,1.8,12.9,29,0.00,,,0.00,0.0,WUHU216CR1000,2013-04-26 00:12:00,
2013-04-25 17:17:00,79.4,42.9,29.97,SE,146,5.3,12.9,27,0.00,,,0.00,0.0,WUHU216CR1000,2013-04-26 00:17:00,
2013-04-25 17:22:00,79.2,43.4,29.97,SE,140,1.8,12.9,28,0.00,,,0.00,0.0,WUHU216CR1000,2013-04-26 00:22:00,
2013-04-25 17:27:00,78.6,43.3,29.97,SSE,149,1.8,12.9,29,0.00,,,0.00,0.0,WUHU216CR1000,2013-04-26 00:27:00,
2013-04-25 17:32:00,78.1,41.6,29.97,SSW,213,2.4,12.9,27,0.00,,,0.00,0.0,WUHU216CR1000,2013-04-26 00:32:00,
2013-04-25 17:38:00,77.5,42.1,29.97,SE,146,2.6,12.9,28,0.00,,,0.00,0.0,WUHU216CR1000,2013-04-26 00:38:00,
2013-04-25 17:43:00,77.1,42.7,29.97,SSE,158,4.6,12.9,29,0.00,,,0.00,0.0,WUHU216CR1000,2013-04-26 00:43:00,
2013-04-25 17:48:00,77.1,43.6,29.97,SE,142,0.7,12.9,30,0.00,,,0.00,0.0,WUHU216CR1000,2013-04-26 00:48:00,
2013-04-25 17:53:00,76.9,43.4,29.97,SE,124,4.4,12.9,30,0.00,,,0.00,0.0,WUHU216CR1000,2013-04-26 00:53:00,
2013-04-25 17:58:00,76.5,44.1,29.97,SE,135,2.2,12.9,32,0.00,,,0.00,0.0,WUHU216CR1000,2013-04-26 00:58:00,
2013-04-25 18:03:00,76.4,44.3,29.97,East,96,5.7,12.9,32,0.00,,,0.00,0.0,WUHU216CR1000,2013-04-26 01:03:00,
2013-04-25 18:08:00,76.5,44.7,29.97,ESE,115,2.4,12.9,32,0.00,,,0.00,0.0,WUHU216CR1000,2013-04-26 01:08:00,
2013-04-25 18:13:00,76.9,45.1,29.97,SE,142,2.4,12.9,32,0.00,,,0.00,0.0,WUHU216CR1000,2013-04-26 01:13:00,
2013-04-25 18:18:00,77.4,45.3,29.97,ESE,118,1.5,12.9,32,0.00,,,0.00,0.0,WUHU216CR1000,2013-04-26 01:18:00,
2013-04-25 18:23:00,77.1,44.7,29.97,SE,135,4.4,12.9,32,0.00,,,0.00,0.0,WUHU216CR1000,2013-04-26 01:23:00,
2013-04-25 18:29:00,77.3,44.3,29.97,ESE,115,3.7,12.9,31,0.00,,,0.00,0.0,WUHU216CR1000,2013-04-26 01:29:00,
2013-04-25 18:34:00,77.1,44.3,29.97,SSE,148,4.8,12.9,31,0.00,,,0.00,0.0,WUHU216CR1000,2013-04-26 01:34:00,
2013-04-25 18:39:00,76.9,43.9,29.97,SE,141,2.2,12.9,31,0.00,,,0.00,0.0,WUHU216CR1000,2013-04-26 01:39:00,
2013-04-25 18:44:00,76.9,44.0,29.97,SE,131,3.9,12.9,31,0.00,,,0.00,0.0,WUHU216CR1000,2013-04-26 01:44:00,
2013-04-25 18:49:00,76.9,43.3,29.97,SSE,147,3.7,12.9,30,0.00,,,0.00,0.0,WUHU216CR1000,2013-04-26 01:49:00,
2013-04-25 18:54:00,76.8,43.5,29.97,ESE,104,4.2,12.9,31,0.00,,,0.00,0.0,WUHU216CR1000,2013-04-26 01:54:00,
2013-04-25 18:59:00,76.5,43.7,29.97,SE,136,3.9,12.9,31,0.00,,,0.00,0.0,WUHU216CR1000,2013-04-26 01:59:00,
2013-04-25 19:04:00,75.9,43.6,29.97,SE,136,3.7,12.9,32,0.00,,,0.00,0.0,WUHU216CR1000,2013-04-26 02:04:00,
2013-04-25 19:09:00,75.5,44.1,29.97,ESE,122,3.3,12.9,33,0.00,,,0.00,0.0,WUHU216CR1000,2013-04-26 02:09:00,
2013-04-25 19:14:00,75.2,44.0,29.97,SE,133,3.7,12.9,33,0.00,,,0.00,0.0,WUHU216CR1000,2013-04-26 02:14:00,
2013-04-25 19:19:00,74.8,44.1,29.97,East,101,1.5,12.9,33,0.00,,,0.00,0.0,WUHU216CR1000,2013-04-26 02:19:00,
2013-04-25 19:25:00,74.3,44.0,29.97,NNW,333,0.0,12.9,34,0.00,,,0.00,0.0,WUHU216CR1000,2013-04-26 02:25:00,
2013-04-25 19:30:00,74.2,44.3,29.97,SE,126,2.2,12.9,34,0.00,,,0.00,0.0,WUHU216CR1000,2013-04-26 02:30:00,
2013-04-25 19:35:00,74.0,44.4,29.97,ESE,113,0.0,12.9,35,0.00,,,0.00,0.0,WUHU216CR1000,2013-04-26 02:35:00,
2013-04-25 19:40:00,73.5,44.3,29.97,SE,132,0.7,12.9,35,0.00,,,0.00,0.0,WUHU216CR1000,2013-04-26 02:40:00,
2013-04-25 19:45:00,73.2,44.3,29.97,East,93,4.6,12.9,35,0.00,,,0.00,0.0,WUHU216CR1000,2013-04-26 02:45:00,
2013-04-25 19:50:00,72.9,44.5,29.97,East,89,0.0,12.9,36,0.00,,,0.00,0.0,WUHU216CR1000,2013-04-26 02:50:00,
2013-04-25 19:55:00,72.8,44.7,29.97,East,90,0.0,12.9,37,0.00,,,0.00,0.0,WUHU216CR1000,2013-04-26 02:55:00,
2013-04-25 20:00:00,72.4,44.7,30.00,ESE,115,0.0,12.9,37,0.00,,,0.00,0.0,WUHU216CR1000,2013-04-26 03:00:00,
2013-04-25 20:05:00,72.0,45.1,30.00,ESE,119,0.0,12.9,38,0.00,,,0.00,0.0,WUHU216CR1000,2013-04-26 03:05:00,
2013-04-25 20:10:00,71.7,45.5,30.00,SE,125,1.3,12.9,39,0.00,,,0.00,0.0,WUHU216CR1000,2013-04-26 03:10:00,
2013-04-25 20:16:00,70.9,45.6,30.00,ENE,68,0.0,12.9,40,0.00,,,0.00,0.0,WUHU216CR1000,2013-04-26 03:16:00,
2013-04-25 20:21:00,70.6,45.6,30.00,ESE,118,0.7,12.9,41,0.00,,,0.00,0.0,WUHU216CR1000,2013-04-26 03:21:00,
2013-04-25 20:26:00,70.2,45.5,30.00,ESE,115,0.0,12.9,41,0.00,,,0.00,0.0,WUHU216CR1000,2013-04-26 03:26:00,
2013-04-25 20:31:00,69.8,45.2,30.00,ENE,59,0.0,12.9,41,0.00,,,0.00,0.0,WUHU216CR1000,2013-04-26 03:31:00,
2013-04-25 20:36:00,69.6,45.4,30.00,ENE,72,0.0,12.9,42,0.00,,,0.00,0.0,WUHU216CR1000,2013-04-26 03:36:00,
2013-04-25 20:41:00,69.5,45.5,30.00,ESE,116,2.2,12.9,42,0.00,,,0.00,0.0,WUHU216CR1000,2013-04-26 03:41:00,
2013-04-25 20:46:00,69.2,45.8,30.00,ESE,106,0.0,12.9,43,0.00,,,0.00,0.0,WUHU216CR1000,2013-04-26 03:46:00,
2013-04-25 20:51:00,69.0,45.4,30.00,East,96,0.0,12.9,43,0.00,,,0.00,0.0,WUHU216CR1000,2013-04-26 03:51:00,
2013-04-25 20:56:00,68.6,45.5,30.00,NE,53,0.2,12.9,43,0.00,,,0.00,0.0,WUHU216CR1000,2013-04-26 03:56:00,
2013-04-25 21:01:00,68.4,45.5,30.03,ESE,116,0.0,12.9,44,0.00,,,0.00,0.0,WUHU216CR1000,2013-04-26 04:01:00,
2013-04-25 21:07:00,68.1,45.3,30.03,East,100,0.0,12.9,44,0.00,,,0.00,0.0,WUHU216CR1000,2013-04-26 04:07:00,
2013-04-25 21:12:00,67.9,45.6,30.03,ENE,74,0.0,12.9,45,0.00,,,0.00,0.0,WUHU216CR1000,2013-04-26 04:12:00,
2013-04-25 21:17:00,67.5,45.5,30.03,ENE,61,0.0,12.9,45,0.00,,,0.00,0.0,WUHU216CR1000,2013-04-26 04:17:00,
2013-04-25 21:22:00,67.3,45.4,30.03,ESE,108,0.0,12.9,45,0.00,,,0.00,0.0,WUHU216CR1000,2013-04-26 04:22:00,
2013-04-25 21:27:00,67.0,45.4,30.03,SE,127,0.0,12.9,46,0.00,,,0.00,0.0,WUHU216CR1000,2013-04-26 04:27:00,
2013-04-25 21:32:00,66.8,45.7,30.03,ESE,116,0.9,12.9,47,0.00,,,0.00,0.0,WUHU216CR1000,2013-04-26 04:32:00,
2013-04-25 21:37:00,66.5,45.7,30.03,ESE,111,0.0,12.9,47,0.00,,,0.00,0.0,WUHU216CR1000,2013-04-26 04:37:00,
2013-04-25 21:42:00,66.2,45.8,30.03,East,88,0.0,12.9,48,0.00,,,0.00,0.0,WUHU216CR1000,2013-04-26 04:42:00,
2013-04-25 21:47:00,65.8,45.9,30.03,ESE,120,0.0,12.9,49,0.00,,,0.00,0.0,WUHU216CR1000,2013-04-26 04:47:00,
2013-04-25 21:52:00,65.3,45.8,30.03,ESE,107,0.0,12.9,49,0.00,,,0.00,0.0,WUHU216CR1000,2013-04-26 04:52:00,
2013-04-25 21:57:00,65.1,45.8,30.03,East,101,0.0,12.9,50,0.00,,,0.00,0.0,WUHU216CR1000,2013-04-26 04:57:00,
2013-04-25 22:02:00,64.9,45.8,30.03,ENE,78,0.0,12.9,50,0.00,,,0.00,0.0,WUHU216CR1000,2013-04-26 05:02:00,
2013-04-25 22:07:00,64.6,45.7,30.03,East,83,0.0,12.9,50,0.00,,,0.00,0.0,WUHU216CR1000,2013-04-26 05:07:00,
2013-04-25 22:13:00,64.4,46.5,30.03,ESE,102,2.2,12.9,52,0.00,,,0.00,0.0,WUHU216CR1000,2013-04-26 05:13:00,
2013-04-25 22:18:00,63.9,46.4,30.03,ESE,116,0.0,12.9,53,0.00,,,0.00,0.0,WUHU216CR1000,2013-04-26 05:18:00,
2013-04-25 22:23:00,63.6,46.0,30.06,ESE,108,2.2,12.9,53,0.00,,,0.00,0.0,WUHU216CR1000,2013-04-26 05:23:00,
2013-04-25 22:28:00,63.6,46.2,30.06,ESE,119,0.0,12.9,53,0.00,,,0.00,0.0,WUHU216CR1000,2013-04-26 05:28:00,
2013-04-25 22:33:00,63.4,46.0,30.06,ESE,119,0.0,12.9,53,0.00,,,0.00,0.0,WUHU216CR1000,2013-04-26 05:33:00,
2013-04-25 22:38:00,63.5,45.7,30.06,SE,143,1.5,12.9,52,0.00,,,0.00,0.0,WUHU216CR1000,2013-04-26 05:38:00,
2013-04-25 22:43:00,63.6,45.7,30.06,SW,234,0.0,12.9,52,0.00,,,0.00,0.0,WUHU216CR1000,2013-04-26 05:43:00,
2013-04-25 22:48:00,63.5,45.6,30.06,SSE,153,0.0,12.9,52,0.00,,,0.00,0.0,WUHU216CR1000,2013-04-26 05:48:00,
2013-04-25 22:53:00,63.4,45.4,30.06,SSE,160,0.2,12.9,52,0.00,,,0.00,0.0,WUHU216CR1000,2013-04-26 05:53:00,
2013-04-25 22:58:00,63.3,45.3,30.06,SSE,153,0.0,12.9,52,0.00,,,0.00,0.0,WUHU216CR1000,2013-04-26 05:58:00,
2013-04-25 23:03:00,63.4,46.0,30.06,ESE,117,0.0,12.9,53,0.00,,,0.00,0.0,WUHU216CR1000,2013-04-26 06:03:00,
2013-04-25 23:08:00,62.8,45.9,30.06,East,96,0.0,12.9,54,0.00,,,0.00,0.0,WUHU216CR1000,2013-04-26 06:08:00,
2013-04-25 23:13:00,62.3,45.7,30.06,East,96,0.0,12.9,55,0.00,,,0.00,0.0,WUHU216CR1000,2013-04-26 06:13:00,
2013-04-25 23:18:00,62.3,45.9,30.06,SE,134,0.0,12.9,55,0.00,,,0.00,0.0,WUHU216CR1000,2013-04-26 06:18:00,
2013-04-25 23:23:00,62.0,45.8,30.06,SE,141,0.0,12.9,55,0.00,,,0.00,0.0,WUHU216CR1000,2013-04-26 06:23:00,
2013-04-25 23:29:00,61.9,45.9,30.06,SSW,197,0.0,12.9,56,0.00,,,0.00,0.0,WUHU216CR1000,2013-04-26 06:29:00,
2013-04-25 23:34:00,61.7,46.0,30.06,SE,126,0.0,12.9,56,0.00,,,0.00,0.0,WUHU216CR1000,2013-04-26 06:34:00,
2013-04-25 23:39:00,61.2,45.7,30.06,SE,144,0.0,12.9,57,0.00,,,0.00,0.0,WUHU216CR1000,2013-04-26 06:39:00,
2013-04-25 23:44:00,61.0,45.7,30.06,SE,126,0.0,12.9,57,0.00,,,0.00,0.0,WUHU216CR1000,2013-04-26 06:44:00,
2013-04-25 23:49:00,60.8,45.9,30.06,SE,135,0.0,12.9,58,0.00,,,0.00,0.0,WUHU216CR1000,2013-04-26 06:49:00,
2013-04-25 23:54:00,60.2,46.0,30.06,ESE,118,2.0,12.9,59,0.00,,,0.00,0.0,WUHU216CR1000,2013-04-26 06:54:00,
2013-04-25 23:59:00,59.9,45.8,30.06,South,171,0.0,12.9,60,0.00,,,0.00,0.0,WUHU216CR1000,2013-04-26 06:59:00,